Hourly Weather Bolshie Toronkovichi

Today, 15 June, Tuesday

Time Temperature Precipitation Wind Pressure Humidity
00:00 +14°C° 0 mm 1 mps 741 mmHg 87%
01:00 +15°C° 0 mm 1 mps 741 mmHg 86%
02:00 +15°C° 0 mm 1 mps 740 mmHg 83%
03:00 +15°C° 0 mm 1 mps 740 mmHg 83%
04:00 +15°C° 0 mm 1 mps 740 mmHg 83%
05:00 +15°C° 0 mm 1 mps 740 mmHg 83%
06:00 +16°C° 0 mm 1 mps 740 mmHg 80%
07:00 +17°C° 0 mm 2 mps 740 mmHg 78%
08:00 +18°C° 0 mm 2 mps 741 mmHg 74%
09:00 +19°C° 0 mm 2 mps 740 mmHg 67%
10:00 +20°C° 0 mm 3 mps 740 mmHg 61%
11:00 +22°C° 0 mm 3 mps 740 mmHg 54%
12:00 +22°C° 0 mm 3 mps 740 mmHg 51%
13:00 +24°C° 0 mm 3 mps 740 mmHg 48%
14:00 +24°C° 0 mm 3 mps 739 mmHg 45%
15:00 +24°C° 0 mm 3 mps 739 mmHg 50%
16:00 +24°C° 0 mm 3 mps 739 mmHg 55%
17:00 +24°C° 0 mm 2 mps 739 mmHg 59%
18:00 +21°C° 0 mm 2 mps 739 mmHg 68%
19:00 +19°C° 0 mm 2 mps 739 mmHg 77%
20:00 +18°C° 0 mm 2 mps 739 mmHg 86%
21:00 +17°C° 0 mm 2 mps 739 mmHg 89%
22:00 +16°C° 0 mm 2 mps 739 mmHg 92%
23:00 +15°C° 0 mm 2 mps 739 mmHg 96%

Tomorrow, 16 June, Wednesday

Time Temperature Precipitation Wind Pressure Humidity
00:00 +15°C° 0 mm 2 mps 739 mmHg 95%
01:00 +15°C° 0 mm 2 mps 739 mmHg 94%
02:00 +15°C° 0 mm 2 mps 739 mmHg 94%
03:00 +14°C° 0 mm 2 mps 740 mmHg 93%
04:00 +13°C° 0 mm 2 mps 740 mmHg 93%
05:00 +11°C° 0 mm 3 mps 740 mmHg 92%
06:00 +12°C° 0 mm 3 mps 740 mmHg 83%
07:00 +14°C° 0 mm 3 mps 741 mmHg 75%
08:00 +17°C° 0 mm 3 mps 741 mmHg 66%
09:00 +18°C° 0 mm 3 mps 742 mmHg 62%
10:00 +19°C° 0 mm 3 mps 742 mmHg 58%
11:00 +20°C° 0 mm 3 mps 742 mmHg 54%
12:00 +20°C° 0 mm 3 mps 742 mmHg 51%
13:00 +21°C° 0 mm 2 mps 742 mmHg 48%
14:00 +23°C° 0 mm 2 mps 742 mmHg 45%
15:00 +21°C° 0 mm 2 mps 742 mmHg 47%
16:00 +21°C° 0 mm 2 mps 742 mmHg 49%
17:00 +21°C° 0 mm 2 mps 742 mmHg 51%
18:00 +19°C° 0 mm 2 mps 743 mmHg 58%
19:00 +18°C° 0 mm 2 mps 743 mmHg 64%
20:00 +16°C° 0 mm 1 mps 743 mmHg 71%
21:00 +15°C° 0 mm 1 mps 743 mmHg 74%
22:00 +14°C° 0 mm 1 mps 743 mmHg 76%
23:00 +13°C° 0 mm 1 mps 744 mmHg 79%

Day after tomorrow, 17 June, Thursday

Time Temperature Precipitation Wind Pressure Humidity
00:00 +12°C° 0 mm 1 mps 744 mmHg 79%
01:00 +12°C° 0 mm 1 mps 744 mmHg 79%
02:00 +11°C° 0 mm 1 mps 745 mmHg 79%
03:00 +12°C° 0 mm 1 mps 745 mmHg 79%
04:00 +12°C° 0 mm 1 mps 745 mmHg 78%
05:00 +12°C° 0 mm 1 mps 745 mmHg 78%
06:00 +14°C° 0 mm 2 mps 746 mmHg 72%
07:00 +16°C° 0 mm 2 mps 746 mmHg 67%
08:00 +18°C° 0 mm 2 mps 746 mmHg 61%
09:00 +20°C° 0 mm 2 mps 746 mmHg 58%
10:00 +21°C° 0 mm 2 mps 747 mmHg 55%
11:00 +23°C° 0 mm 2 mps 747 mmHg 51%
12:00 +24°C° 0 mm 2 mps 747 mmHg 50%
13:00 +25°C° 0 mm 2 mps 747 mmHg 48%
14:00 +25°C° 0 mm 2 mps 747 mmHg 46%
15:00 +25°C° 0 mm 2 mps 747 mmHg 48%
16:00 +25°C° 0 mm 2 mps 747 mmHg 51%
17:00 +25°C° 0 mm 2 mps 746 mmHg 53%
18:00 +23°C° 0 mm 2 mps 746 mmHg 61%
19:00 +21°C° 0 mm 2 mps 747 mmHg 69%
20:00 +19°C° 0 mm 2 mps 747 mmHg 78%
21:00 +18°C° 0 mm 2 mps 747 mmHg 80%
22:00 +17°C° 0 mm 2 mps 747 mmHg 83%
23:00 +15°C° 0 mm 2 mps 747 mmHg 85%

18 June, Friday

Time Temperature Precipitation Wind Pressure Humidity
00:00 +15°C° 0 mm 2 mps 747 mmHg 86%
01:00 +14°C° 0 mm 2 mps 747 mmHg 87%
02:00 +14°C° 0 mm 2 mps 747 mmHg 88%
03:00 +14°C° 0 mm 2 mps 747 mmHg 87%
04:00 +14°C° 0 mm 2 mps 747 mmHg 86%
05:00 +14°C° 0 mm 2 mps 747 mmHg 84%
06:00 +16°C° 0 mm 2 mps 748 mmHg 78%
07:00 +19°C° 0 mm 2 mps 748 mmHg 71%
08:00 +21°C° 0 mm 2 mps 748 mmHg 65%
09:00 +23°C° 0 mm 2 mps 748 mmHg 60%
10:00 +24°C° 0 mm 3 mps 748 mmHg 56%
11:00 +25°C° 0 mm 3 mps 748 mmHg 52%
12:00 +26°C° 0 mm 3 mps 748 mmHg 50%
13:00 +26°C° 0 mm 3 mps 748 mmHg 49%
14:00 +27°C° 0 mm 3 mps 748 mmHg 47%
15:00 +26°C° 0 mm 3 mps 747 mmHg 50%
16:00 +26°C° 0 mm 3 mps 747 mmHg 53%
17:00 +26°C° 0 mm 3 mps 747 mmHg 57%
18:00 +24°C° 0 mm 3 mps 747 mmHg 65%
19:00 +21°C° 0 mm 3 mps 747 mmHg 73%
20:00 +19°C° 0 mm 2 mps 747 mmHg 81%
21:00 +18°C° 0 mm 2 mps 747 mmHg 82%
22:00 +17°C° 0 mm 2 mps 747 mmHg 84%
23:00 +16°C° 0 mm 2 mps 747 mmHg 86%

19 June, Saturday

Time Temperature Precipitation Wind Pressure Humidity
00:00 +16°C° 0 mm 2 mps 747 mmHg 88%
01:00 +15°C° 0 mm 2 mps 747 mmHg 90%
02:00 +15°C° 0 mm 2 mps 747 mmHg 92%
03:00 +15°C° 0 mm 2 mps 747 mmHg 91%
04:00 +15°C° 0 mm 2 mps 748 mmHg 91%
05:00 +16°C° 0 mm 2 mps 748 mmHg 90%
06:00 +17°C° 0 mm 2 mps 748 mmHg 83%
07:00 +19°C° 0 mm 2 mps 748 mmHg 76%
08:00 +21°C° 0 mm 3 mps 748 mmHg 70%
09:00 +22°C° 0 mm 3 mps 748 mmHg 65%
10:00 +25°C° 0 mm 3 mps 748 mmHg 60%
11:00 +26°C° 0 mm 3 mps 748 mmHg 55%
12:00 +26°C° 0 mm 3 mps 747 mmHg 54%
13:00 +27°C° 0 mm 3 mps 747 mmHg 53%
14:00 +27°C° 0 mm 3 mps 747 mmHg 51%
15:00 +27°C° 0 mm 3 mps 747 mmHg 54%
16:00 +27°C° 0 mm 3 mps 747 mmHg 56%
17:00 +27°C° 0 mm 3 mps 746 mmHg 59%
18:00 +25°C° 0 mm 3 mps 746 mmHg 66%
19:00 +22°C° 0 mm 3 mps 746 mmHg 74%
20:00 +21°C° 0 mm 2 mps 746 mmHg 82%
21:00 +20°C° 0 mm 2 mps 746 mmHg 85%
22:00 +19°C° 0 mm 2 mps 746 mmHg 87%
23:00 +18°C° 0 mm 2 mps 746 mmHg 90%

20 June, Sunday

Time Temperature Precipitation Wind Pressure Humidity
00:00 +17°C° 0 mm 2 mps 746 mmHg 91%
01:00 +17°C° 0 mm 2 mps 746 mmHg 92%
02:00 +16°C° 0 mm 2 mps 746 mmHg 93%
03:00 +16°C° 0 mm 2 mps 746 mmHg 92%
04:00 +16°C° 0 mm 2 mps 746 mmHg 91%
05:00 +17°C° 0 mm 2 mps 746 mmHg 90%
06:00 +18°C° 0 mm 2 mps 746 mmHg 83%
07:00 +20°C° 0 mm 2 mps 746 mmHg 77%
08:00 +23°C° 0 mm 2 mps 746 mmHg 71%
09:00 +24°C° 0 mm 2 mps 746 mmHg 66%
10:00 +25°C° 0 mm 3 mps 746 mmHg 61%
11:00 +26°C° 0 mm 3 mps 746 mmHg 56%
12:00 +27°C° 0 mm 3 mps 746 mmHg 53%
13:00 +28°C° 0 mm 3 mps 745 mmHg 51%
14:00 +28°C° 0 mm 3 mps 745 mmHg 48%
15:00 +28°C° 0 mm 3 mps 745 mmHg 51%
16:00 +27°C° 0 mm 3 mps 745 mmHg 54%
17:00 +27°C° 0 mm 3 mps 745 mmHg 57%
18:00 +26°C° 0 mm 3 mps 745 mmHg 64%
19:00 +24°C° 0 mm 2 mps 745 mmHg 72%
20:00 +21°C° 0 mm 2 mps 745 mmHg 80%
21:00 +20°C° 0 mm 2 mps 745 mmHg 82%
22:00 +19°C° 0 mm 2 mps 745 mmHg 85%
23:00 +18°C° 0 mm 2 mps 745 mmHg 87%
Show more